This demonstration page uses our WeatherBlox Daily Observations layout. Learn more.

Left ArrowRight Arrow

34.16533, -84.80231

Hourly Observations for March 1, 2021

Temp ( °F °C ) Dew Point ( °F °C ) Humidity (%) Winds ( mph kmh ) Pressure ( in mb ) Visibility ( mi km ) Precip ( " mm )
12:53 am 00:53 Mostly Cloudy 70 21.1 60 15.6 71 71 SSW 5 7 29.89 1012 10 16 0.00 0.00
1:53 am 01:53 Cloudy 71 21.7 61 16.1 71 71 SSW 10 17 29.88 1012 10 16 0.00 0.00
2:23 am 02:23 Cloudy 71 21.7 62 16.7 73 73 VRB 7 11 29.90 1012 10 16 0.00 0.00
2:53 am 02:53 Cloudy 71 21.7 62 16.7 73 73 SSW 9 15 29.86 1011 10 16 0.00 0.00
3:53 am 03:53 Cloudy 72 22.2 62 16.7 71 71 SSW 10 17 29.85 1011 10 16 0.00 0.00
4:40 am 04:40 Cloudy with Light Rain 64 17.8 58 14.4 81 81 undefined N/A 29.91 1013 4 6 0.05 1.27
4:44 am 04:44 Cloudy with Heavy Rain 60 15.6 56 13.3 86 86 NNW 8 13 29.95 1014 2 3 0.11 2.79
4:53 am 04:53 Cloudy with Heavy Rain 58 14.4 55 12.8 90 90 VRB 6 9 29.94 1014 2 3 0.22 5.59
5:00 am 05:00 Cloudy with Heavy Rain 58 14.4 55 12.8 90 90 N 9 15 29.97 1015 3 4 0.07 1.78
5:11 am 05:11 Cloudy with Rain 58 14.4 55 12.8 90 90 NNW 8 13 29.98 1015 3 5 0.11 2.79
5:26 am 05:26 Cloudy with Rain 58 14.4 55 12.8 90 90 Calm 29.99 1015 4 6 0.16 4.06
5:46 am 05:46 Cloudy with Rain 58 14.4 55 12.8 90 90 Calm 30.00 1016 4 6 0.20 5.08
5:53 am 05:53 Cloudy with Rain 58 14.4 55 12.8 90 90 Calm 29.97 1015 4 6 0.22 5.59
6:53 am 06:53 Cloudy with Light Rain 58 14.4 55 12.8 90 90 Calm 30.02 1017 4 6 0.10 2.54
7:53 am 07:53 Cloudy with Light Rain 58 14.4 56 13.3 93 93 Calm 30.04 1017 7 11 0.03 0.76
8:53 am 08:53 Cloudy 59 15 56 13.3 90 90 Calm 30.04 1017 10 16 0.01 0.25
9:53 am 09:53 Cloudy with Light Rain 59 15 56 13.3 90 90 SSW 3 6 30.04 1017 10 16 0.01 0.25
10:51 am 10:51 Cloudy with Light Rain 61 16 57 14 88 88 VRB 3 6 30.05 1018 10 16 0.00 0.00
10:53 am 10:53 Cloudy with Light Rain 61 16.1 57 13.9 87 87 VRB 5 7 30.03 1017 10 16 0.00 0.00
11:53 am 11:53 Cloudy with Light Rain 62 16.7 56 13.3 80 80 Calm 30.05 1018 10 16 0.00 0.00
12:53 pm 12:53 Cloudy 62 16.7 56 13.3 80 80 VRB 3 6 30.07 1018 10 16 0.00 0.00
1:53 pm 13:53 Cloudy 62 16.7 54 12.2 75 75 VRB 5 7 30.07 1018 10 16 0.00 0.00
2:53 pm 14:53 Cloudy with Light Rain 61 16.1 54 12.2 78 78 Calm 30.08 1019 9 14 0.00 0.00
3:09 pm 15:09 Cloudy with Light Rain 60 15.6 55 12.8 84 84 VRB 3 6 30.11 1020 10 16 0.00 0.00
3:23 pm 15:23 Cloudy with Light Rain 58 14.4 52 11.1 81 81 N 9 15 30.13 1020 10 16 0.01 0.25
3:39 pm 15:39 Cloudy 58 14.4 51 10.6 78 78 N 8 13 30.15 1021 10 16 0.01 0.25
3:53 pm 15:53 Cloudy with Light Rain 56 13.3 48 8.9 75 75 N 14 22 30.12 1020 10 16 0.01 0.25
4:25 pm 16:25 Cloudy with Light Rain 54 12.2 45 7.2 72 72 VRB 5 7 30.16 1021 10 16 0.00 0.00
4:53 pm 16:53 Cloudy 53 11.7 43 6.1 69 69 NNW 9 15 30.12 1020 10 16 0.00 0.00
5:53 pm 17:53 Cloudy 52 11.1 44 6.7 75 75 Calm 30.13 1020 10 16 0.00 0.00
6:53 pm 18:53 Cloudy 51 10.6 41 5 69 69 NNW 5 7 30.17 1022 10 16 0.00 0.00
7:53 pm 19:53 Mostly Cloudy 50 10 39 3.9 66 66 VRB 3 6 30.17 1022 10 16 0.00 0.00
8:53 pm 20:53 Cloudy 49 9.4 38 3.3 66 66 Calm 30.18 1022 10 16 0.00 0.00
9:53 pm 21:53 Clear 49 9.4 35 1.7 59 59 NNW 5 7 30.21 1023 10 16 0.00 0.00
10:53 pm 22:53 Clear 48 8.9 32 0 54 54 NNW 6 9 30.22 1023 10 16 0.00 0.00
11:53 pm 23:53 Clear 47 8.3 32 0 56 56 NNW 5 7 30.22 1023 10 16 0.00 0.00

Powered by AerisWeather